User: anonymous   Login
Location: Unspecified
(0.0000°N, 0.0000°E)
Time: 19:56:51
(UTC+00:00)
Language:

ASTRA 1KR - Orbit

View from above orbital plane
View from above orbital plane
View from above satellite
View from above satellite

Ground track
Ground track

The orbit data is extracted from the following two-line orbital elements,

1 29055U 06012A   17059.65305425 +.00000106 +00000-0 +00000-0 0  9999
2 29055 000.0927 278.4016 0003431 007.1776 127.3346 01.00270537011663
Epoch (UTC): 28 February 2017 15:40:23
Eccentricity: 0.0003431
inclination: 0.0927°
perigee height: 35772 km
apogee height: 35801 km
right ascension of ascending node: 278.4016°
argument of perigee: 7.1776°
revolutions per day: 1.00270537
mean anomaly at epoch: 127.3346°
orbit number at epoch: 1166

The dashed part of the orbit path shows where the satellite is in the earth's shadow,  

DLR